Regional Weather Roundup
Issued by NWS Newport/Morehead, NC

Current Version | Previous Version | Graphics & Text | Print | Product List | Glossary Off
Versions: 1 2 3 4 5 6 7 8 9 10 11 12 13 14 15 16 17 18 19 20 21 22 23 24 25 26 27 28 29 30 31 32 33 34 35 36 37 38 39 40 41 42 43 44 45 46 47 48 49 50

000
ASUS42 KMHX 261813
RWRMHX
WEATHER ROUNDUP FOR EASTERN NORTH CAROLINA
NATIONAL WEATHER SERVICE NEWPORT/MOREHEAD CITY NC
200 PM EDT THU MAY 26 2016

NOTE: "FAIR" INDICATES FEW OR NO CLOUDS BELOW 12,000 FEET
WITH NO SIGNIFICANT WEATHER AND/OR OBSTRUCTIONS TO VISIBILITY

NCZ015>017-031-032-045>047-102-103-261900-
NORTH COAST

CITY           SKY/WX    TMP DP  RH WIND       PRES   REMARKS
EDENTON        NOT AVBL
ELIZABETH CITY SUNNY     86  63  45 S13       30.13F
KITTY HAWK     CLEAR     87  67  50 S9        30.14S
MANTEO         NOT AVBL

$$

NCZ045>047-081-094-103-104-261900-
CENTRAL COAST

CITY           SKY/WX    TMP DP  RH WIND       PRES   REMARKS
FRISCO         SUNNY     78  68  71 SW9       30.18F

$$

NCZ095-097-098-100-101-261900-
SOUTHERN COAST

CITY           SKY/WX    TMP DP  RH WIND       PRES   REMARKS
BEAUFORT       SUNNY     79  67  66 SW14      30.18F
CEDAR ISLAND   NOT AVBL
JACKSONVILLE   SUNNY     83  66  56 S14       30.16F
PINEY ISLAND   NOT AVBL
WILMINGTON     CLOUDY    82  64  54 S9        30.17S


$$

NCZ011>013-027>030-043-044-078>080-089-090>093-098-261900-
COASTAL PLAIN

CITY           SKY/WX    TMP DP  RH WIND       PRES   REMARKS
AHOSKIE        NOT AVBL
CLINTON        SUNNY     87  64  46 SW6       30.15F
ELIZABETHTOWN  MOSUNNY   85  63  47 S9        30.17S
GOLDSBORO      MOSUNNY   88  61  40 SW9       30.13F
GREENVILLE     SUNNY     88  64  45 SW8       30.15F
HAVELOCK       SUNNY     83  66  56 S10       30.17F
KENANSVILLE    MOSUNNY   85  61  43 S3        30.16F
KINSTON        MOSUNNY   88  57  35 SW8       30.15F
NEW BERN       MOSUNNY   86  62  44 SW8       30.16F
RICHLANDS      MOSUNNY   87  65  47 SW7       30.16F
ROCKY MOUNT    SUNNY     87  61  41 S9        30.13F
WASHINGTON     MOSUNNY   86  62  45 W8        30.14S
WHITEVILLE     PTSUNNY   84  64  49 S7        30.16F

$$

AMZ130-135-150-152-154-156-158-170-250-252-270-ANZ085-086-088-633-658-670-261900-
MARINE OBSERVATIONS

STATION/POSITION TIME  TEMP    WIND        PRES    WAVE   SWELL
                       AIR SEA DIR/SP/G            HT/PER HT/PER
                 (UTC) (F)     (DEG/KT/KT) (MB)    (FT/S) (FT/S)
CHESAPEAKE LIGHT 1800   71     170/ 19/ 20 1020.2
64 E VA BEACH    1750   64 59  190/  8/ 10 1020.8    2/ 8   2/ 8
DUCK             1700   80 62  190/ 10/ 12 1020.1
2 E DUCK         1741      68                N/A     1/11
OREGON INLET     1700   74 72  180/ 15/ 17 1021.5
13E OREGON INLT  1800      66                N/A     2/ 8   2/ 8
HATTERAS CG      1700   77 71  190/  4/ 11 1021.9
DIAMOND BUOY     1750   74 71  210/  6/  8 1021.9    2/ 9   2/ 9
CAPE LOOKOUT     1800   78     210/  9/ 13 1021.9
BEAUFORT LAB     1700   77 71  200/ 10/ 13 1021.6
30 SE NEW RVR IN 1755      75                N/A     2/ 9
27 SE WRIGHTSVLE NOT AVBL
5 SE WRIGHTSVLE  1708   75 74  200/ 12/ 14 1022.8
225 S CAPE HAT   1750   76 78   60/ 14/ 17 1022.1    3/ 7   2/ 7
41 SE CHARLESTON 1750   77 78  290/  2/  4 1022.4    2/ 9   2/ 9

$$



USA.gov is the U.S. government's official web portal to all federal, state and local government web resources and services.